Hourly Data Report for March 26, 2012

All times are specified in Local Standard Time (LST). Add 1 hour to adjust for Daylight Saving Time where and when it is observed.

MIRAMICHI RCS
NEW BRUNSWICK

47°00'34.000" N
65°27'54.000" W
33.00 m
8100989
71744
ACQ

Download Data

Hourly Data (March 2012)
Hourly Data Report for March 26, 2012
TIME Temp Definition
°C
Dew Point Temp Definition
°C
Rel Hum Definition
%
Wind Dir Definition
10's deg

Wind Spd Definition
km/h
Visibility Definition
km
Stn Press Definition
kPa
Hmdx Definition


Wind Chill Definition


Weather Definition


00:00 1.4 0.4 93 21 17   100.00     LegendNANA
01:00 1.5 0.5 93 22 19   99.89     LegendNANA
02:00 1.7 0.6 92 21 19   99.75     LegendNANA
03:00 1.9 0.8 92 22 17   99.64     LegendNANA
04:00 1.9 0.9 93 23 15   99.57     LegendNANA
05:00 2.1 1.1 93 23 15   99.53     LegendNANA
06:00 2.0 0.9 92 24 11   99.46     LegendNANA
07:00 2.1 1.1 93 24 11   99.48     LegendNANA
08:00 2.7 1.4 91 25 13   99.44     LegendNANA
09:00 3.2 -0.4 77 31 11   99.49     LegendNANA
10:00 2.4 -3.5 65 31 15   99.51     LegendNANA
11:00 1.0 -4.6 66 32 15   99.56     LegendNANA
12:00 1.5 -6.7 54 32 15   99.59     LegendNANA
13:00 1.3 -7.9 50 32 15   99.56     LegendNANA
14:00 0.8 -9.4 46 31 20   99.61     LegendNANA
15:00 0.5 -10.5 43 32 20   99.64     LegendNANA
16:00 -0.6 -10.6 47 33 17   99.72   -6 LegendNANA
17:00 -0.8 -11.0 46 30 20   99.76   -6 LegendNANA
18:00 -1.2 -10.7 48 32 15   99.79   -6 LegendNANA
19:00 -1.1 -9.7 52 32 17   99.81   -6 LegendNANA
20:00 -1.8 -8.6 60 31 15   99.89   -7 LegendNANA
21:00 -2.4 -9.5 58 32 17   99.93   -8 LegendNANA
22:00 -3.8 -11.1 57 32 19   99.92   -10 LegendNANA
23:00 -4.5 -10.9 61 33 17   99.94   -10 LegendNANA

Notes on Data Quality.

Legend

  • E = Estimated
  • M = Missing
  • NA = Not Available
Date modified: